Time,TemperatureF,DewpointF,PressureIn,WindDirection,WindDirectionDegrees,WindSpeedMPH,WindSpeedGustMPH,Humidity,HourlyPrecipIn,Conditions,Clouds,dailyrainin,SoftwareType,DateUTC
2013-05-21 00:09:00,55.9,37.0,29.82,WSW,257,0.0,2.0,50,0.00,,,0.00,weatherlink.com 1.10,2013-05-21 07:09:00,
2013-05-21 00:24:00,54.8,35.0,29.82,SSE,167,2.0,6.0,48,0.00,,,0.00,weatherlink.com 1.10,2013-05-21 07:24:00,
2013-05-21 00:39:00,54.2,37.0,29.81,South,186,5.0,10.0,53,0.00,,,0.00,weatherlink.com 1.10,2013-05-21 07:39:00,
2013-05-21 00:54:00,53.9,38.0,29.80,South,169,4.0,10.0,55,0.00,,,0.00,weatherlink.com 1.10,2013-05-21 07:54:00,
2013-05-21 01:10:00,53.5,39.0,29.79,SSE,149,7.0,11.0,58,0.00,,,0.00,weatherlink.com 1.10,2013-05-21 08:10:00,
2013-05-21 01:25:00,52.7,39.0,29.79,South,186,6.0,11.0,60,0.00,,,0.00,weatherlink.com 1.10,2013-05-21 08:25:00,
2013-05-21 01:40:00,52.3,38.0,29.78,South,171,7.0,9.0,59,0.00,,,0.00,weatherlink.com 1.10,2013-05-21 08:40:00,
2013-05-21 01:55:00,52.6,36.0,29.77,SSE,162,4.0,8.0,54,0.00,,,0.00,weatherlink.com 1.10,2013-05-21 08:55:00,
2013-05-21 02:10:00,51.7,37.0,29.76,SSW,198,7.0,11.0,57,0.00,,,0.00,weatherlink.com 1.10,2013-05-21 09:10:00,
2013-05-21 02:25:00,53.7,35.0,29.76,South,173,7.0,12.0,49,0.00,,,0.00,weatherlink.com 1.10,2013-05-21 09:25:00,
2013-05-21 02:40:00,53.5,36.0,29.76,South,176,6.0,12.0,52,0.00,,,0.00,weatherlink.com 1.10,2013-05-21 09:40:00,
2013-05-21 02:55:00,50.7,38.0,29.75,SSE,154,3.0,11.0,63,0.00,,,0.00,weatherlink.com 1.10,2013-05-21 09:55:00,
2013-05-21 03:10:00,49.7,39.0,29.74,SSE,167,5.0,8.0,67,0.00,,,0.00,weatherlink.com 1.10,2013-05-21 10:10:00,
2013-05-21 03:25:00,49.2,40.0,29.73,SSE,167,3.0,11.0,70,0.00,,,0.00,weatherlink.com 1.10,2013-05-21 10:25:00,
2013-05-21 03:40:00,49.3,41.0,29.72,South,178,6.0,9.0,72,0.00,,,0.00,weatherlink.com 1.10,2013-05-21 10:40:00,
2013-05-21 03:55:00,49.6,41.0,29.72,South,185,10.0,10.0,72,0.00,,,0.00,weatherlink.com 1.10,2013-05-21 10:55:00,
2013-05-21 04:10:00,50.0,41.0,29.71,South,182,4.0,14.0,72,0.00,,,0.00,weatherlink.com 1.10,2013-05-21 11:10:00,
2013-05-21 04:25:00,50.4,42.0,29.71,SSE,165,3.0,10.0,72,0.00,,,0.00,weatherlink.com 1.10,2013-05-21 11:25:00,
2013-05-21 04:40:00,50.7,42.0,29.71,South,178,3.0,10.0,71,0.00,,,0.00,weatherlink.com 1.10,2013-05-21 11:40:00,
2013-05-21 04:55:00,50.5,41.0,29.70,SSW,197,6.0,9.0,70,0.00,,,0.00,weatherlink.com 1.10,2013-05-21 11:55:00,
2013-05-21 05:10:00,50.2,41.0,29.70,South,186,8.0,8.0,70,0.00,,,0.00,weatherlink.com 1.10,2013-05-21 12:10:00,
2013-05-21 05:25:00,50.1,41.0,29.69,SSE,157,4.0,8.0,70,0.00,,,0.00,weatherlink.com 1.10,2013-05-21 12:25:00,
2013-05-21 05:40:00,50.1,41.0,29.69,SSE,163,4.0,6.0,71,0.00,,,0.00,weatherlink.com 1.10,2013-05-21 12:40:00,
2013-05-21 05:55:00,49.9,41.0,29.68,SE,127,3.0,7.0,72,0.00,,,0.00,weatherlink.com 1.10,2013-05-21 12:55:00,
2013-05-21 06:10:00,49.1,41.0,29.68,SSE,153,5.0,9.0,74,0.00,,,0.00,weatherlink.com 1.10,2013-05-21 13:10:00,
2013-05-21 06:25:00,48.7,41.0,29.68,South,175,3.0,7.0,76,0.00,,,0.00,weatherlink.com 1.10,2013-05-21 13:25:00,
2013-05-21 06:40:00,48.7,41.0,29.67,South,177,2.0,8.0,76,0.00,,,0.00,weatherlink.com 1.10,2013-05-21 13:40:00,
2013-05-21 06:55:00,48.6,42.0,29.68,South,178,4.0,7.0,78,0.00,,,0.00,weatherlink.com 1.10,2013-05-21 13:55:00,
2013-05-21 07:10:00,48.3,42.0,29.68,SSE,154,3.0,9.0,79,0.00,,,0.00,weatherlink.com 1.10,2013-05-21 14:10:00,
2013-05-21 07:25:00,48.3,42.0,29.68,South,171,6.0,9.0,80,0.00,,,0.00,weatherlink.com 1.10,2013-05-21 14:25:00,
2013-05-21 07:40:00,48.5,42.0,29.68,SSE,155,5.0,8.0,79,0.00,,,0.00,weatherlink.com 1.10,2013-05-21 14:40:00,
2013-05-21 07:55:00,49.4,41.0,29.68,SW,216,2.0,8.0,74,0.00,,,0.00,weatherlink.com 1.10,2013-05-21 14:55:00,
2013-05-21 08:10:00,49.8,38.0,29.68,WSW,244,2.0,9.0,64,0.00,,,0.00,weatherlink.com 1.10,2013-05-21 15:10:00,
2013-05-21 08:25:00,50.1,37.0,29.67,WNW,284,4.0,6.0,61,0.00,,,0.00,weatherlink.com 1.10,2013-05-21 15:25:00,
2013-05-21 08:40:00,51.4,34.0,29.67,SW,215,3.0,15.0,52,0.00,,,0.00,weatherlink.com 1.10,2013-05-21 15:40:00,
2013-05-21 08:56:00,52.5,32.0,29.68,SW,219,7.0,20.0,46,0.01,,,0.01,weatherlink.com 1.10,2013-05-21 15:56:00,
2013-05-21 09:11:00,51.4,31.0,29.68,North,360,10.0,18.0,45,0.01,,,0.01,weatherlink.com 1.10,2013-05-21 16:11:00,
2013-05-21 09:27:00,52.6,29.0,29.68,WSW,238,13.0,22.0,41,0.01,,,0.01,weatherlink.com 1.10,2013-05-21 16:27:00,
2013-05-21 09:41:00,52.5,29.0,29.68,SW,216,14.0,20.0,40,0.01,,,0.01,weatherlink.com 1.10,2013-05-21 16:41:00,
2013-05-21 09:56:00,53.3,29.0,29.67,SSW,212,13.0,18.0,39,0.00,,,0.01,weatherlink.com 1.10,2013-05-21 16:56:00,
2013-05-21 10:11:00,53.9,29.0,29.67,SW,230,4.0,16.0,38,0.00,,,0.01,weatherlink.com 1.10,2013-05-21 17:11:00,
2013-05-21 10:26:00,54.6,29.0,29.66,SSW,203,6.0,16.0,37,0.00,,,0.01,weatherlink.com 1.10,2013-05-21 17:26:00,
2013-05-21 10:41:00,54.2,25.0,29.66,SW,216,7.0,23.0,33,0.00,,,0.01,weatherlink.com 1.10,2013-05-21 17:41:00,
2013-05-21 10:56:00,54.5,25.0,29.67,SSW,200,14.0,17.0,32,0.00,,,0.01,weatherlink.com 1.10,2013-05-21 17:56:00,
2013-05-21 11:11:00,55.3,23.0,29.66,SE,138,18.0,23.0,29,0.00,,,0.01,weatherlink.com 1.10,2013-05-21 18:11:00,
2013-05-21 11:26:00,55.4,24.0,29.66,SSE,147,7.0,22.0,30,0.00,,,0.01,weatherlink.com 1.10,2013-05-21 18:26:00,
2013-05-21 11:41:00,53.5,24.0,29.67,SW,235,6.0,22.0,32,0.00,,,0.01,weatherlink.com 1.10,2013-05-21 18:41:00,
2013-05-21 11:56:00,55.4,27.0,29.67,WSW,256,5.0,17.0,34,0.00,,,0.01,weatherlink.com 1.10,2013-05-21 18:56:00,
2013-05-21 12:11:00,56.3,29.0,29.66,SW,234,13.0,18.0,35,0.00,,,0.01,weatherlink.com 1.10,2013-05-21 19:11:00,
2013-05-21 12:26:00,55.5,28.0,29.66,South,180,4.0,21.0,35,0.00,,,0.01,weatherlink.com 1.10,2013-05-21 19:26:00,
2013-05-21 12:41:00,55.9,29.0,29.67,South,175,8.0,18.0,36,0.00,,,0.01,weatherlink.com 1.10,2013-05-21 19:41:00,
2013-05-21 12:56:00,54.7,30.0,29.67,WSW,244,8.0,19.0,39,0.00,,,0.01,weatherlink.com 1.10,2013-05-21 19:56:00,
2013-05-21 13:11:00,53.0,31.0,29.68,SW,222,6.0,15.0,44,0.00,,,0.01,weatherlink.com 1.10,2013-05-21 20:11:00,
2013-05-21 13:26:00,54.7,31.0,29.66,WSW,244,9.0,12.0,40,0.00,,,0.01,weatherlink.com 1.10,2013-05-21 20:26:00,
2013-05-21 13:41:00,53.8,32.0,29.67,West,268,3.0,15.0,44,0.00,,,0.01,weatherlink.com 1.10,2013-05-21 20:41:00,
2013-05-21 13:56:00,54.9,30.0,29.66,WSW,240,7.0,15.0,39,0.00,,,0.01,weatherlink.com 1.10,2013-05-21 20:56:00,
2013-05-21 14:12:00,54.8,29.0,29.66,South,171,11.0,22.0,37,0.00,,,0.01,weatherlink.com 1.10,2013-05-21 21:12:00,
2013-05-21 14:26:00,53.0,34.0,29.67,SSE,162,12.0,24.0,49,0.00,,,0.01,weatherlink.com 1.10,2013-05-21 21:26:00,
2013-05-21 14:41:00,51.7,34.0,29.67,SSW,194,13.0,18.0,52,0.00,,,0.01,weatherlink.com 1.10,2013-05-21 21:41:00,
2013-05-21 14:56:00,51.7,33.0,29.68,SW,214,4.0,14.0,50,0.00,,,0.01,weatherlink.com 1.10,2013-05-21 21:56:00,
2013-05-21 15:11:00,50.6,34.0,29.69,SW,235,13.0,20.0,54,0.00,,,0.01,weatherlink.com 1.10,2013-05-21 22:11:00,
2013-05-21 15:26:00,50.4,35.0,29.69,SW,233,9.0,18.0,56,0.00,,,0.01,weatherlink.com 1.10,2013-05-21 22:26:00,
2013-05-21 15:41:00,49.6,33.0,29.69,SSW,213,9.0,18.0,53,0.00,,,0.01,weatherlink.com 1.10,2013-05-21 22:41:00,
2013-05-21 15:56:00,50.3,35.0,29.70,WSW,241,4.0,11.0,57,0.00,,,0.01,weatherlink.com 1.10,2013-05-21 22:56:00,
2013-05-21 16:11:00,48.6,30.0,29.71,SW,235,8.0,20.0,48,0.00,,,0.01,weatherlink.com 1.10,2013-05-21 23:11:00,
2013-05-21 16:26:00,47.8,29.0,29.73,SW,228,7.0,17.0,48,0.00,,,0.01,weatherlink.com 1.10,2013-05-21 23:26:00,
2013-05-21 16:41:00,50.1,28.0,29.74,West,268,5.0,17.0,42,0.00,,,0.01,weatherlink.com 1.10,2013-05-21 23:41:00,
2013-05-21 16:56:00,48.2,26.0,29.76,South,188,9.0,28.0,42,0.00,,,0.01,weatherlink.com 1.10,2013-05-21 23:56:00,
2013-05-21 17:11:00,46.0,26.0,29.76,SW,217,14.0,22.0,45,0.00,,,0.01,weatherlink.com 1.10,2013-05-22 00:11:00,
2013-05-21 17:26:00,45.6,27.0,29.77,SW,234,5.0,18.0,48,0.00,,,0.01,weatherlink.com 1.10,2013-05-22 00:26:00,
2013-05-21 17:41:00,46.1,26.0,29.78,SSW,196,12.0,13.0,46,0.00,,,0.01,weatherlink.com 1.10,2013-05-22 00:41:00,
2013-05-21 17:56:00,45.0,26.0,29.77,SSW,195,5.0,11.0,48,0.00,,,0.01,weatherlink.com 1.10,2013-05-22 00:56:00,
2013-05-21 18:11:00,44.4,26.0,29.78,SSW,205,7.0,13.0,49,0.00,,,0.01,weatherlink.com 1.10,2013-05-22 01:11:00,
2013-05-21 18:26:00,43.9,27.0,29.78,SSE,152,8.0,12.0,51,0.00,,,0.01,weatherlink.com 1.10,2013-05-22 01:26:00,
2013-05-21 18:41:00,43.6,25.0,29.77,SSW,207,5.0,15.0,49,0.00,,,0.01,weatherlink.com 1.10,2013-05-22 01:41:00,
2013-05-21 18:56:00,43.1,24.0,29.79,SW,227,5.0,16.0,48,0.00,,,0.01,weatherlink.com 1.10,2013-05-22 01:56:00,
2013-05-21 19:11:00,42.8,26.0,29.80,West,279,5.0,13.0,52,0.00,,,0.01,weatherlink.com 1.10,2013-05-22 02:11:00,
2013-05-21 19:26:00,42.4,26.0,29.80,WNW,302,3.0,6.0,53,0.00,,,0.01,weatherlink.com 1.10,2013-05-22 02:26:00,
2013-05-21 19:41:00,42.5,26.0,29.81,NNW,328,3.0,4.0,52,0.00,,,0.01,weatherlink.com 1.10,2013-05-22 02:41:00,
2013-05-21 19:56:00,41.5,24.0,29.82,West,279,5.0,15.0,51,0.00,,,0.01,weatherlink.com 1.10,2013-05-22 02:56:00,
2013-05-21 20:11:00,40.7,26.0,29.83,NW,315,5.0,14.0,56,0.00,,,0.01,weatherlink.com 1.10,2013-05-22 03:11:00,
2013-05-21 20:26:00,40.0,25.0,29.84,West,277,2.0,9.0,55,0.00,,,0.01,weatherlink.com 1.10,2013-05-22 03:26:00,
2013-05-21 20:42:00,39.1,25.0,29.84,SW,231,3.0,6.0,57,0.00,,,0.01,weatherlink.com 1.10,2013-05-22 03:42:00,
2013-05-21 20:57:00,38.4,25.0,29.84,West,267,4.0,7.0,60,0.00,,,0.01,weatherlink.com 1.10,2013-05-22 03:57:00,
2013-05-21 21:12:00,37.7,26.0,29.85,West,262,2.0,8.0,62,0.00,,,0.01,weatherlink.com 1.10,2013-05-22 04:12:00,
2013-05-21 21:27:00,37.0,25.0,29.86,West,274,3.0,6.0,62,0.00,,,0.01,weatherlink.com 1.10,2013-05-22 04:27:00,
2013-05-21 21:42:00,36.8,24.0,29.86,West,274,3.0,3.0,61,0.00,,,0.01,weatherlink.com 1.10,2013-05-22 04:42:00,
2013-05-21 21:57:00,36.7,23.0,29.87,SSW,207,0.0,9.0,58,0.00,,,0.01,weatherlink.com 1.10,2013-05-22 04:57:00,
2013-05-21 22:12:00,36.6,25.0,29.88,SW,223,3.0,5.0,62,0.00,,,0.01,weatherlink.com 1.10,2013-05-22 05:12:00,
2013-05-21 22:27:00,36.2,25.0,29.88,SW,223,2.0,3.0,64,0.00,,,0.01,weatherlink.com 1.10,2013-05-22 05:27:00,
2013-05-21 22:42:00,35.7,25.0,29.88,SW,223,3.0,3.0,66,0.00,,,0.01,weatherlink.com 1.10,2013-05-22 05:42:00,
2013-05-21 22:57:00,35.1,24.0,29.89,SW,223,0.0,2.0,65,0.00,,,0.01,weatherlink.com 1.10,2013-05-22 05:57:00,
2013-05-21 23:12:00,34.9,24.0,29.89,SW,227,5.0,8.0,64,0.00,,,0.01,weatherlink.com 1.10,2013-05-22 06:12:00,
2013-05-21 23:27:00,35.0,24.0,29.89,SW,234,1.0,4.0,65,0.00,,,0.01,weatherlink.com 1.10,2013-05-22 06:27:00,
2013-05-21 23:42:00,34.6,25.0,29.89,South,173,5.0,8.0,68,0.00,,,0.01,weatherlink.com 1.10,2013-05-22 06:42:00,
2013-05-21 23:57:00,34.3,24.0,29.89,SSE,157,5.0,11.0,67,0.00,,,0.01,weatherlink.com 1.10,2013-05-22 06:57:00,